Temp
17 17 17 17 17 17 17 18 18 18 18 18 17 17 17 17 17 17 17 16 16 16 16 16 16 16 16 16 16 16 16 15 15 15 16 16 16 16 17 17 17 17 17 17 17 17 16 16 16 16 16 16 17 17 17 17 17 17 17 17 17 18 17 18 19 18 16 15 15 15 15 15 14 14 14 14 14 14 14 14 14 14 13 13 13
16 17 17 17 17 18 18 18 18 18 18 18 17 17 17 17 17 17 16 16 16 16 16 16 16 16 16 16 16 16 16 16 16 16 16 17 17 17 17 18 18 18 18 18 18 17 17 17 17 17 17 16 17 17 17 17 17 17 17 17 17 17 17 18 18 18 17 16 15 15 15 15 15 15 14 14 14 14 14 14 14 14 14 13 13
17 17 17 17 17 18 18 18 18 18 18 18 17 17 17 17 17 16 16 16 16 16 16 16 16 16 16 16 16 16 16 16 16 16 16 17 17 17 17 17 18 18 18 18 18 18 18 18 18 18 17 17 17 17 17 17 17 17 17 17 17 17 17 17 18 18 18 16 15 15 15 15 15 15 15 14 14 14 14 14 14 14 14 14 13
17 17 17 17 17 17 18 18 18 18 18 18 17 17 17 17 17 16 16 16 16 15 15 15 16 16 16 16 16 16 16 16 16 16 16 16 17 17 17 17 17 18 18 18 18 18 18 19 19 18 18 18 17 17 17 17 17 17 17 17 17 17 17 17 17 18 18 17 16 16 16 15 15 15 15 15 15 14 14 14 14 14 14 14 14
17 17 17 17 17 17 17 17 17 17 17 18 17 17 17 16 16 16 16 16 16 15 15 15 15 16 16 16 16 16 16 16 16 16 16 16 16 17 17 17 17 17 17 18 18 18 18 18 19 19 18 18 18 18 17 18 17 17 17 17 17 17 17 17 17 17 18 18 17 16 16 16 15 15 15 15 15 15 14 14 14 14 14 14 14
16 16 16 16 16 16 17 17 17 17 17 17 17 17 17 16 16 16 16 16 16 16 15 15 15 16 16 16 16 16 16 16 16 16 16 16 16 16 16 17 17 17 17 17 17 18 18 18 18 19 18 18 18 18 18 17 17 17 17 17 17 17 17 16 16 16 17 18 18 16 16 16 16 15 15 15 15 15 15 14 14 14 14 14 14
15 15 15 15 15 15 16 16 16 16 17 17 17 16 16 16 16 16 16 16 16 16 16 16 16 16 16 16 16 16 16 16 16 16 16 16 16 16 16 16 16 17 17 17 17 17 17 17 18 18 18 18 18 18 18 18 18 17 17 17 17 17 17 16 16 16 16 17 17 17 16 16 16 15 15 15 15 15 15 15 15 14 14 14 14
15 14 14 14 15 15 15 15 16 16 16 16 16 15 16 16 16 16 16 16 16 16 16 16 16 16 16 16 16 16 16 16 16 16 16 16 16 16 16 16 16 16 16 16 17 17 17 17 17 17 17 17 17 18 18 18 18 18 18 18 17 17 17 16 15 16 16 17 17 17 16 16 16 15 15 15 15 15 15 16 15 15 14 13 13
14 13 14 14 14 14 14 15 15 15 15 15 15 15 15 15 15 16 16 16 16 16 16 16 16 16 16 16 16 16 16 16 16 16 16 16 16 16 16 16 16 16 16 16 16 16 17 17 17 17 17 17 17 17 17 17 17 17 17 18 17 18 17 16 16 16 16 17 17 17 16 16 16 15 15 15 15 16 15 15 15 15 14 13 12
13 13 13 13 13 13 13 13 14 14 14 14 14 14 14 15 15 15 15 16 16 16 16 16 16 16 16 16 15 15 15 16 16 16 16 16 16 16 16 16 16 16 16 16 16 16 16 17 17 17 17 17 17 17 17 17 17 17 17 17 17 17 17 17 16 16 16 17 17 17 16 17 16 16 16 16 16 16 15 15 15 14 13 13 12
11 11 12 12 12 12 12 13 13 13 13 13 13 13 14 14 15 15 15 15 15 16 16 16 16 16 16 15 15 15 15 15 15 15 15 15 15 16 16 16 16 16 16 16 17 17 17 17 17 17 17 17 17 17 17 17 17 17 17 17 17 17 17 16 16 16 16 17 17 16 16 17 16 16 16 16 15 16 15 15 15 14 13 14 13
10 10 10 11 11 11 11 12 12 12 12 12 13 13 13 13 14 14 14 14 15 15 15 15 15 15 15 15 14 14 14 14 14 15 15 15 15 15 15 16 16 16 16 16 16 16 16 16 16 16 16 16 17 17 17 17 16 16 16 16 16 16 16 16 16 16 16 16 16 16 16 16 16 16 16 16 15 15 15 14 14 14 14 14 14
9 9 9 10 10 10 11 11 11 11 11 12 12 12 13 13 13 13 13 13 13 14 14 14 14 14 14 14 14 14 14 14 14 14 15 15 15 16 15 16 16 16 16 16 16 16 16 16 16 16 16 16 16 16 16 16 16 16 16 16 16 16 16 16 16 16 16 16 16 16 16 16 16 15 16 16 15 14 14 13 13 13 13 14 14
7 7 8 8 9 9 10 10 10 10 10 11 11 12 12 12 12 12 12 12 12 13 12 13 13 13 13 13 13 13 13 13 13 14 14 15 15 15 15 15 15 15 15 15 15 15 15 15 15 15 15 15 15 16 16 16 16 16 16 16 16 16 16 16 16 16 16 16 16 16 16 16 16 15 15 15 15 14 13 13 13 13 12 13 12
7 7 7 8 8 9 9 10 9 9 10 10 11 11 11 11 11 11 11 11 11 11 11 11 11 11 12 12 12 12 12 12 13 13 14 14 14 15 15 15 15 15 15 15 15 15 15 15 15 15 15 15 15 15 15 15 15 15 15 15 15 16 15 16 16 16 16 16 16 16 16 16 16 15 15 15 14 14 13 13 13 12 12 11 11
7 7 7 7 8 9 9 9 9 9 9 10 10 10 10 10 10 10 11 11 11 10 10 10 10 10 11 11 12 11 11 12 12 13 13 13 14 14 14 14 14 14 14 14 14 14 14 14 15 15 15 15 15 15 14 14 14 14 14 15 15 15 15 15 15 15 15 15 15 15 15 15 15 15 14 14 14 13 13 13 12 12 11 10 10
7 6 6 7 7 8 8 9 9 9 9 10 10 10 10 9 9 10 10 10 10 10 9 9 9 9 10 10 11 11 11 11 11 12 12 13 13 13 13 13 13 13 13 13 13 13 13 13 13 14 14 14 14 14 14 14 13 13 13 13 14 14 15 15 15 15 15 14 15 15 15 15 15 14 14 14 13 13 13 12 11 11 10 10 11
6 6 6 6 7 7 8 8 8 8 8 9 8 8 9 9 9 9 9 10 10 9 9 9 9 9 9 9 9 10 10 10 10 11 11 12 12 12 12 12 12 12 13 13 13 13 13 13 13 13 12 12 12 13 13 13 13 12 12 13 13 13 14 14 14 14 14 14 14 14 14 14 14 14 14 13 13 13 13 12 11 11 10 11 11
6 6 6 6 6 6 7 7 8 7 7 7 7 7 8 8 8 8 8 8 9 9 9 9 8 8 8 8 8 9 9 9 10 10 11 11 11 11 11 11 11 12 12 12 13 13 13 13 13 12 12 12 12 12 12 12 12 11 12 12 13 13 13 13 13 14 14 14 13 13 13 13 13 13 13 13 12 13 12 12 12 11 11 12 11
5 5 6 6 6 6 6 6 7 6 6 6 6 6 6 7 7 7 7 7 7 8 8 8 7 7 7 7 7 8 8 8 9 9 9 10 10 10 10 10 10 10 10 11 11 11 11 12 12 12 12 12 12 12 12 12 11 11 11 11 12 13 13 13 13 13 13 13 13 12 12 12 12 12 12 12 12 12 12 12 11 11 11 11 10
5 5 5 5 5 5 5 5 5 5 5 5 6 6 6 6 6 6 6 6 6 7 7 7 7 6 6 6 6 6 7 7 7 8 8 8 8 8 8 8 8 8 8 8 8 9 9 9 10 10 11 11 12 12 12 12 11 10 10 10 11 11 11 11 11 12 12 12 12 11 11 11 11 11 11 11 12 12 11 11 10 10 11 11 10
4 4 4 4 4 4 4 4 4 4 4 5 5 5 5 5 5 5 5 6 6 6 6 6 6 6 6 5 5 6 6 6 7 7 7 7 7 7 7 7 7 7 6 7 7 7 7 7 8 8 9 9 10 10 11 12 11 11 11 11 10 10 10 10 10 10 10 11 10 10 10 10 10 10 10 11 11 10 10 10 10 10 10 10 10
4 4 4 4 4 4 4 4 4 4 4 4 4 4 4 4 4 4 5 5 5 5 5 5 5 5 5 5 5 6 6 6 6 6 6 7 7 7 7 6 6 6 6 6 6 6 7 7 7 8 8 8 9 9 9 10 11 11 11 11 11 10 9 9 9 9 9 10 10 9 9 9 9 9 10 10 10 9 9 9 10 10 9 9 9
4 4 4 4 3 3 4 4 4 4 4 4 4 4 4 4 4 4 4 4 5 5 5 4 5 5 5 4 5 5 6 6 6 7 7 7 7 6 6 6 6 6 6 6 6 6 6 6 7 7 8 8 8 9 9 9 10 10 11 11 10 9 9 8 8 8 8 9 9 9 9 9 9 9 9 9 9 9 9 9 9 8 8 8 8
4 4 4 4 4 4 4 3 3 3 3 3 3 3 3 3 3 3 3 4 4 4 4 4 4 4 4 4 4 4 4 5 6 6 7 7 6 6 6 6 6 5 5 5 5 6 6 6 7 7 7 8 8 8 9 9 10 10 10 10 9 8 8 8 8 8 8 8 9 9 9 9 9 9 9 9 9 8 8 8 8 7 7 7 7
4 4 4 4 4 4 4 3 3 3 3 3 3 3 2 3 3 3 3 3 3 3 3 4 4 4 4 4 4 3 3 3 4 5 5 5 6 6 6 6 6 6 5 5 5 5 5 6 6 6 7 7 7 8 8 9 9 10 10 9 8 7 8 8 8 8 7 8 8 9 9 9 9 9 8 8 8 7 7 7 7 6 6 6 6
4 4 4 4 4 4 3 3 3 3 3 3 3 3 2 2 2 3 3 3 3 3 3 3 3 3 3 3 3 3 3 3 3 4 4 4 4 4 5 6 6 6 6 5 5 4 4 5 6 6 6 6 6 7 8 8 9 9 8 7 6 6 7 7 7 8 8 8 9 9 9 9 8 8 7 7 7 7 7 7 6 6 5 5 5
4 4 4 4 3 3 3 3 3 3 3 2 2 2 2 2 2 2 2 2 2 2 3 3 3 3 3 3 3 3 4 4 3 3 3 2 2 3 3 4 4 4 5 5 4 4 4 5 5 5 5 5 5 5 6 6 7 7 6 6 5 6 6 7 7 7 7 8 8 8 8 8 7 7 6 6 6 6 6 6 6 5 5 4 4
4 4 4 4 3 3 3 3 3 3 3 2 2 2 2 2 2 2 2 2 2 2 2 3 3 3 3 3 3 3 3 3 3 2 2 2 3 2 3 3 3 3 4 4 3 3 4 5 5 4 4 5 4 4 4 5 5 5 5 5 5 5 5 6 6 6 6 7 7 7 7 6 5 5 5 5 5 5 5 5 5 5 4 4 5
4 4 4 4 3 3 3 3 3 3 3 3 2 2 2 2 2 2 2 2 2 2 2 2 2 2 2 2 2 2 2 3 2 2 2 3 3 3 3 3 3 3 3 3 3 3 3 3 3 3 4 4 4 3 4 4 4 4 5 5 5 5 5 5 5 5 6 6 6 6 6 5 4 4 4 4 4 4 5 5 5 4 4 5 5
4 4 4 3 3 3 3 3 3 3 3 3 3 3 3 3 3 3 3 3 2 2 2 2 2 1 1 1 1 2 2 2 2 2 2 3 3 3 4 4 4 3 3 3 2 2 3 3 3 3 3 3 3 3 4 4 4 4 5 5 5 5 5 5 4 5 5 5 4 5 5 4 4 3 3 4 4 4 4 4 4 4 4 5 4
4 4 3 3 3 3 3 3 3 3 3 2 2 3 3 3 3 3 3 3 2 2 2 2 2 2 1 1 1 2 2 2 2 2 2 2 3 3 4 4 4 3 3 3 2 2 3 3 3 3 3 4 4 4 4 4 4 4 4 5 5 5 4 4 4 4 4 4 3 3 4 3 3 3 3 3 3 3 3 3 4 4 4 4 4
4 4 3 3 3 3 3 3 3 3 3 3 2 3 3 4 4 3 3 3 2 2 2 2 2 2 2 2 2 2 2 2 2 2 2 3 3 3 4 4 4 3 3 2 2 2 3 3 3 3 3 4 4 4 4 4 4 4 4 4 4 4 4 4 4 3 3 3 3 3 3 3 3 3 3 3 3 2 2 3 3 3 3 3 2
4 4 3 3 3 3 3 3 3 3 3 3 2 2 2 3 3 3 3 3 3 3 3 3 3 3 3 3 3 2 2 2 2 3 3 3 3 3 4 4 3 3 2 2 2 2 2 2 2 3 3 4 4 4 4 4 4 4 4 4 3 3 3 3 3 3 3 3 2 2 2 2 3 3 3 3 2 2 1 1 2 2 2 2 2
4 4 3 3 3 3 3 3 3 3 3 2 2 2 2 2 2 2 2 2 3 3 3 3 3 3 3 3 3 3 3 3 3 3 3 3 3 3 3 3 3 2 2 2 2 2 2 2 2 2 3 3 4 3 3 3 3 3 3 3 3 3 2 2 2 2 2 2 2 2 2 2 3 3 3 2 2 1 1 1 2 2 2 2 2
4 4 3 3 3 3 3 3 3 3 3 3 2 2 2 2 2 2 2 2 2 3 3 3 3 3 3 3 3 3 3 3 3 3 3 3 3 3 3 2 2 2 2 2 2 2 2 2 3 3 3 3 3 3 2 3 3 3 2 3 2 2 2 2 1 1 1 1 1 1 2 2 3 2 2 2 1 1 1 1 2 2 2 2 2
4 4 3 3 3 3 3 3 3 3 3 3 2 2 2 2 2 2 2 2 2 2 2 2 1 2 2 2 2 3 3 3 3 3 3 3 3 3 3 2 2 2 2 2 2 2 2 2 3 3 3 3 3 2 2 2 2 2 2 2 2 2 1 1 1 1 1 1 1 1 2 2 2 2 1 1 1 1 1 1 1 1 1 1 1
4 4 4 3 3 3 3 3 3 3 3 3 3 2 2 2 2 2 2 2 2 2 2 1 1 1 1 1 1 2 3 3 3 3 3 3 3 3 3 3 2 2 1 2 2 2 2 2 2 2 2 2 2 2 2 2 2 1 2 2 1 1 0 0 0 0 1 1 1 1 1 1 1 1 2 1 1 1 1 1 1 1 0 1 1
4 4 4 3 3 3 3 3 3 3 3 3 3 3 2 2 2 2 2 2 2 1 1 1 1 0 0 0 1 2 2 2 2 1 1 1 1 1 2 2 1 1 1 1 1 1 1 2 2 2 2 2 1 1 2 2 1 1 1 1 1 0 0 0 0 0 0 0 0 1 1 1 1 1 1 1 1 0 0 0 1 1 1 1 2
4 4 3 3 3 3 3 3 2 2 2 2 2 2 2 2 2 2 1 1 1 1 1 1 0 0 0 1 1 1 1 1 1 -0 -0 0 1 1 1 1 1 0 0 0 0 1 1 1 1 1 1 1 1 1 1 1 1 1 0 0 0 -0 -0 -0 -0 0 0 0 1 1 1 1 1 1 1 1 1 0 0 0 1 1 1 1 1
4 4 3 3 3 2 2 2 2 2 2 2 2 2 2 2 2 1 1 1 0 0 0 0 0 -0 0 1 1 1 0 0 -0 -0 -0 0 1 1 1 1 0 -0 -1 -0 -0 -0 0 0 0 0 0 0 0 0 0 0 0 0 -0 -0 0 0 -0 -0 0 0 1 1 1 1 1 1 1 1 0 0 0 0 0 0 1 1 1 1 1
4 4 3 3 2 2 2 2 2 2 2 2 2 2 2 2 2 1 1 1 1 0 0 0 0 -0 0 1 1 1 -0 -1 -1 -1 -1 -0 -0 0 1 1 1 -0 -1 -1 -1 -1 -1 -0 -0 -1 -1 -1 -0 -0 -1 -0 -0 -0 -0 -0 -0 -0 -0 -0 0 1 1 1 1 1 1 1 1 0 0 0 0 0 0 0 1 1 1 1 1
4 4 3 3 2 2 2 2 2 2 1 1 2 2 2 2 2 1 1 1 1 0 -0 0 -0 -0 -0 0 1 0 -1 -1 -1 -1 -1 -1 -1 -0 -0 1 1 0 -0 -0 -1 -1 -1 -1 -1 -1 -1 -1 -1 -1 -1 -1 -0 0 0 -0 -0 -0 0 0 0 0 1 1 1 1 1 1 0 0 0 0 0 0 0 0 1 1 1 1 1
4 4 3 3 2 2 2 1 1 1 1 1 1 1 2 2 1 1 1 1 1 0 -0 -0 -0 -1 -1 -0 -0 -1 -1 -2 -2 -2 -2 -2 -1 -1 -1 -1 -0 -0 -0 -0 -0 -1 -1 -1 -1 -1 -1 -1 -1 -1 -1 -0 0 0 0 0 0 1 0 0 0 1 1 1 1 1 1 0 0 0 0 0 0 0 0 1 1 1 1 1 1
4 3 3 2 2 2 1 1 1 1 1 1 1 1 2 2 1 0 1 1 1 -0 -0 -1 -1 -1 -1 -1 -1 -1 -2 -2 -2 -2 -2 -2 -2 -2 -1 -1 -1 -1 -0 -0 -0 -1 -1 -1 -1 -1 -1 -1 -1 -0 -0 0 0 0 1 1 1 1 1 1 0 0 0 1 1 0 0 0 0 0 0 0 0 1 1 1 1 1 1 1 1
4 3 3 2 2 2 1 1 1 1 1 1 1 1 1 1 0 0 1 2 1 0 -0 -1 -1 -1 -1 -1 -1 -1 -2 -2 -2 -2 -2 -1 -1 -1 -1 -1 -1 -1 -1 -1 -1 -1 -1 -1 -1 -1 -1 -1 -0 -0 0 0 0 0 0 0 1 1 0 0 0 0 0 0 0 0 0 0 -0 -0 0 0 1 1 1 1 1 1 1 1 1
4 3 3 3 2 2 1 1 1 2 1 1 1 1 1 0 0 1 1 1 1 0 -0 -0 -0 -1 -1 -1 -1 -1 -2 -2 -2 -1 -1 -1 -1 -1 -1 -1 -1 -1 -1 -1 -0 -0 -0 -0 -1 -1 -1 -0 -0 -0 0 0 0 1 0 0 1 0 0 0 0 -0 -0 0 0 0 0 0 0 0 0 0 1 1 1 1 1 1 1 1 1
3 3 3 3 2 2 1 1 2 2 2 1 1 1 1 1 1 1 1 1 0 -0 0 0 0 -1 -1 -1 -1 -1 -1 -1 -1 -1 -0 -0 -1 -1 -1 -1 -1 -0 -0 -0 -0 -0 -0 -0 -0 -0 -0 -0 0 0 0 0 0 0 0 0 0 0 0 0 0 0 0 0 -0 -0 0 0 0 0 0 0 1 1 1 1 1 1 1 1 1
4 3 3 3 2 2 2 2 2 2 2 1 1 1 1 1 1 1 1 0 -0 -0 0 0 0 -0 -1 -1 -1 -1 -1 -1 -1 -1 -1 -1 -1 -1 -1 -1 -0 -0 -0 -0 -0 -0 -0 0 0 0 -0 0 0 0 0 0 0 0 0 0 -0 -0 -0 0 0 0 0 -0 -0 -0 0 0 0 0 0 0 1 1 1 1 1 1 1 1 1
4 3 3 3 3 2 2 1 1 1 2 1 1 1 1 1 1 0 0 0 0 -0 -0 -0 -0 -0 -1 -1 -1 -1 -1 -1 -1 -1 -1 -1 -1 -1 -1 -0 -0 -0 -0 -0 -0 -0 -0 0 0 0 0 0 0 -0 -0 -0 -0 -0 -0 -0 -0 -0 -0 -0 -0 -0 -0 -0 -0 -0 0 0 0 0 0 1 1 1 1 1 1 1 1 1 1
4 3 3 3 3 3 2 1 1 1 1 1 1 1 1 0 0 0 0 0 0 -0 -0 -0 -0 -0 -1 -1 -1 -1 -1 -1 -1 -1 -1 -1 -1 -1 -1 -0 -0 -0 -0 -0 -0 0 0 -0 -0 -0 -0 -0 -0 -0 -0 -0 -0 -0 -0 -0 -0 -0 -0 -0 -0 -0 -0 -0 -0 -0 -0 0 0 0 0 1 1 1 1 1 1 1 1 1 1
Height
804 805 807 809 811 813 816 818 819 821 823 824 825 826 828 829 830 832 832 833 834 835 836 837 838 839 839 840 841 841 842 842 843 844 844 845 846 846 847 848 848 849 850 851 852 853 855 856 857 858 860 861 862 864 865 867 868 870 871 872 874 875 876 876 876 877 880 882 883 884 885 885 887 888 889 889 889 890 890 890 890 891 891 891 890
803 805 807 809 811 813 815 818 820 822 823 824 826 827 828 829 831 832 833 834 835 835 836 837 838 839 839 840 841 842 842 843 843 844 845 845 846 846 847 848 848 849 850 851 852 853 854 855 856 858 859 861 862 863 865 866 867 869 870 871 873 874 875 876 876 877 879 880 882 882 883 884 885 886 887 888 888 889 889 890 890 890 890 890 890
803 805 806 808 810 812 814 816 819 821 822 824 825 826 828 830 831 833 834 834 835 836 837 837 838 839 840 841 842 842 843 843 844 845 845 846 846 847 847 848 849 850 851 852 852 853 854 855 856 857 858 860 861 863 864 865 867 868 869 870 871 872 873 875 875 876 877 879 880 881 882 883 884 884 885 886 887 887 888 889 889 888 888 888 888
803 804 806 808 810 812 813 816 818 820 822 823 825 826 828 830 831 833 834 834 835 836 837 837 838 839 840 841 842 843 843 844 844 845 845 846 847 847 848 849 850 850 851 852 853 853 854 855 856 857 858 859 860 862 863 865 866 867 868 869 870 871 872 873 874 875 876 877 878 879 880 881 882 883 884 884 885 886 886 887 887 887 887 887 887
803 805 807 808 810 812 813 816 818 820 822 823 825 826 828 830 832 833 834 834 835 836 837 837 838 839 840 841 842 843 843 844 844 845 846 846 847 847 848 849 850 851 852 852 853 853 854 855 856 857 857 858 859 861 862 864 865 866 867 868 869 870 870 872 873 874 875 875 876 878 878 880 881 881 881 882 883 884 884 884 885 885 885 885 885
803 806 808 809 811 812 813 815 818 820 822 823 825 826 828 830 831 833 834 834 835 836 837 837 838 839 840 841 842 843 843 844 845 845 846 846 847 848 848 849 850 851 852 852 853 854 854 855 856 857 858 858 859 860 862 863 864 866 867 867 868 869 869 870 871 872 874 874 875 876 877 877 878 879 880 881 882 882 882 883 883 883 883 883 883
803 806 809 811 812 814 814 816 817 820 822 824 825 827 828 830 831 833 834 835 835 836 837 838 838 839 840 840 841 842 843 844 845 845 846 847 847 848 848 849 850 851 852 853 853 854 855 856 857 857 858 859 860 861 862 863 864 865 866 866 867 868 868 869 870 871 872 873 873 874 874 875 876 877 878 879 880 880 881 881 881 880 881 881 881
804 807 810 812 815 816 817 817 818 821 823 825 826 828 829 830 831 833 834 835 836 837 837 838 838 839 840 840 841 842 843 844 845 846 846 847 848 848 849 849 850 851 852 853 854 855 856 856 857 858 858 859 860 861 862 863 864 865 865 865 866 866 866 867 868 869 870 870 871 872 872 873 874 875 876 877 877 878 877 878 878 878 878 879 879
805 807 810 812 815 817 818 818 819 822 824 825 828 829 830 831 831 833 834 835 836 837 837 838 838 839 840 840 841 842 843 844 844 845 846 847 847 848 848 849 850 851 852 853 854 855 856 857 857 858 859 859 860 861 862 863 863 864 864 865 865 865 866 866 866 867 868 868 868 869 870 871 871 872 873 873 874 874 874 875 876 876 876 877 877
805 807 810 812 814 816 819 819 820 822 824 826 828 830 830 831 832 833 834 835 836 837 837 838 838 839 839 840 841 842 842 843 844 844 845 846 847 848 848 849 850 851 852 853 854 855 855 856 857 858 859 859 860 861 861 862 862 863 863 864 864 865 865 865 865 866 866 866 867 867 868 868 868 869 870 870 871 871 872 873 873 874 875 875 876
805 808 811 813 815 816 819 820 821 822 823 826 828 829 830 831 832 833 834 835 836 836 837 837 837 838 839 839 840 841 842 843 843 844 844 845 846 847 848 849 849 850 851 852 853 854 855 856 856 857 858 859 859 860 860 860 861 861 862 862 862 863 863 864 864 864 865 865 865 865 866 866 866 866 867 868 869 869 870 870 871 872 872 873 873
807 809 812 814 816 817 819 820 821 822 823 825 827 829 830 831 832 833 834 835 836 837 837 837 837 838 838 839 840 840 841 842 843 844 844 845 846 846 847 848 848 849 850 851 852 853 854 855 855 856 857 857 858 858 858 859 859 860 860 860 861 861 861 862 862 863 863 863 863 863 864 864 864 864 865 866 867 867 868 868 869 869 870 870 870
809 811 814 816 817 819 821 821 821 822 824 826 827 829 830 832 833 834 834 836 837 837 838 838 838 838 838 838 839 840 841 842 842 843 843 844 845 846 846 847 848 849 849 850 851 852 853 853 854 855 855 856 856 857 857 857 858 858 858 858 859 859 859 859 860 860 860 861 861 861 861 861 862 862 862 863 865 865 866 866 867 867 868 868 868
812 814 817 818 819 821 822 822 822 823 826 827 828 830 831 833 834 834 836 837 838 838 839 839 839 839 839 839 839 840 840 841 842 842 843 843 844 845 845 846 847 847 848 849 849 850 851 851 852 853 853 854 855 855 855 856 856 856 857 857 857 857 857 857 857 857 857 857 858 858 858 859 859 859 860 861 862 863 863 864 865 865 866 866 866
817 818 820 822 822 823 823 823 824 826 827 829 830 831 833 834 835 836 837 838 839 840 840 840 841 841 841 840 840 840 840 841 841 842 842 842 843 844 844 845 845 846 847 847 848 848 849 849 850 851 851 852 852 852 853 853 853 854 854 854 854 854 854 854 855 855 855 855 855 855 855 856 856 857 857 858 859 860 861 861 862 863 864 865 865
821 821 823 824 825 825 825 825 827 829 830 831 833 834 835 835 836 837 838 838 839 841 841 842 842 842 842 842 841 841 841 841 841 841 841 842 842 843 843 843 844 845 845 846 847 847 847 848 848 849 849 849 849 849 850 850 850 851 851 851 851 851 851 851 851 852 852 852 852 852 853 853 854 854 854 855 856 857 858 858 858 859 861 862 863
824 824 825 826 827 827 828 829 831 832 832 832 833 835 836 837 838 838 838 839 840 841 842 843 843 844 844 843 842 842 841 841 841 841 841 841 841 841 842 842 843 843 844 845 845 846 846 846 847 847 847 847 847 847 847 847 847 847 847 848 848 847 847 847 847 848 848 848 849 849 850 850 851 851 852 852 853 854 854 854 855 856 857 858 859
826 827 827 828 829 830 831 833 834 834 834 833 834 836 837 838 839 839 839 840 840 841 843 843 843 844 844 844 843 842 842 842 841 841 841 840 840 840 840 841 841 842 842 843 844 844 844 844 845 845 845 845 845 845 845 845 844 844 844 844 844 844 844 844 844 844 844 845 845 846 846 847 848 848 848 849 850 851 851 850 851 852 854 855 856
829 829 830 831 832 833 833 834 835 837 837 836 836 837 838 839 839 840 840 841 841 841 842 843 844 844 844 844 843 842 842 841 841 840 840 839 839 839 839 840 840 840 841 841 841 842 842 842 842 843 843 843 842 842 842 842 842 842 842 842 841 841 841 840 840 841 841 841 842 843 843 844 845 845 845 846 846 847 847 847 848 849 851 852 853
832 832 833 833 833 834 834 835 836 839 840 838 838 838 839 839 839 840 841 841 840 840 841 842 843 844 844 844 844 843 842 841 840 840 839 839 839 839 839 839 839 839 840 840 840 840 840 840 840 840 840 840 840 840 840 840 840 840 840 840 839 838 838 838 837 838 838 838 839 840 840 840 841 841 841 842 842 843 843 844 845 846 848 849 849
834 834 835 835 834 835 836 837 838 839 840 839 839 839 840 840 840 840 841 840 840 840 840 841 843 844 844 845 845 843 842 841 840 840 840 839 839 839 838 838 838 838 838 838 838 838 837 837 837 837 837 837 837 837 837 837 836 836 836 836 836 835 836 835 835 835 835 836 836 836 836 837 838 838 838 838 839 839 840 841 842 844 846 847 847
835 835 836 836 836 837 838 839 839 839 840 840 840 840 840 841 841 841 841 841 841 841 841 842 843 843 844 844 844 843 841 840 839 839 839 838 838 837 836 836 835 835 835 835 835 834 834 834 833 833 833 833 833 834 834 833 833 832 832 832 832 832 833 833 832 832 832 833 833 833 833 834 834 834 835 835 836 836 837 839 841 842 844 844 845
837 837 837 838 838 839 840 840 841 841 840 840 841 841 842 842 842 842 841 841 841 842 842 842 843 843 843 843 842 841 839 838 837 837 837 837 836 835 834 833 832 832 832 832 831 831 831 831 831 830 829 829 829 829 829 829 829 828 828 828 828 828 829 829 829 829 829 829 829 829 830 830 830 831 831 832 833 834 836 838 839 840 841 842 844
839 839 839 839 840 841 841 841 842 842 842 842 842 843 843 843 843 843 843 842 842 842 842 842 842 842 841 840 839 838 837 836 836 835 835 835 834 833 832 832 831 830 830 830 830 829 829 828 828 827 826 826 825 825 825 825 825 824 824 824 824 824 824 824 824 824 825 825 825 825 825 826 827 827 827 828 830 832 834 835 837 838 839 840 842
842 842 842 842 842 842 842 842 842 843 843 843 843 843 843 843 843 843 843 843 843 842 842 842 841 841 840 839 838 837 836 835 834 834 833 833 832 831 831 830 830 829 829 828 828 827 827 826 825 825 824 823 822 822 821 821 820 820 820 820 820 820 820 820 820 820 820 820 821 821 821 822 823 824 824 826 828 830 831 833 834 836 838 839 840
843 843 843 843 843 843 843 843 843 843 843 843 843 842 842 842 842 842 843 843 842 842 842 841 841 840 839 839 838 837 836 835 834 833 832 830 829 829 828 828 828 827 827 826 826 825 825 824 824 823 822 821 820 819 817 817 816 815 815 815 815 816 816 816 816 815 815 815 816 817 817 818 819 821 822 824 826 827 829 830 832 834 836 837 839
844 844 844 844 844 844 844 843 843 843 843 842 842 842 842 842 842 842 842 842 841 841 841 840 840 839 839 838 837 836 835 834 833 832 831 830 829 828 827 827 826 826 825 825 825 824 823 822 821 820 819 818 817 816 815 814 813 812 811 811 811 811 812 812 812 812 811 811 812 812 813 814 815 818 820 821 822 824 826 828 830 833 835 836 838
844 845 845 845 845 844 844 844 843 843 842 842 842 841 842 841 841 841 841 841 841 840 839 839 839 838 837 837 836 835 834 833 833 832 831 830 829 828 828 827 826 825 824 824 823 822 820 820 819 818 817 816 815 814 813 812 811 810 809 809 808 808 808 809 809 808 808 808 808 808 809 809 811 814 816 818 819 821 824 826 828 830 832 834 836
845 845 845 845 845 845 845 844 844 843 843 842 842 841 841 840 840 840 840 839 839 838 838 838 838 838 837 837 836 835 835 834 833 832 831 830 829 828 827 826 826 825 824 823 822 820 819 818 817 816 816 815 814 812 811 810 809 808 807 807 806 805 805 805 805 805 805 805 805 805 805 806 809 811 813 815 817 820 822 825 827 829 831 832 834
846 846 846 846 846 846 846 845 845 844 843 843 842 842 841 840 840 840 839 838 838 838 838 838 838 838 838 838 837 836 835 834 833 831 830 829 828 827 826 825 824 823 823 822 821 820 819 818 816 815 814 813 812 811 810 809 808 807 805 804 803 803 802 801 801 802 802 802 802 803 804 805 806 808 810 812 814 817 820 822 825 828 830 832 833
848 848 848 848 847 847 847 846 846 845 844 844 843 843 842 841 841 840 840 839 838 838 838 838 838 838 838 837 837 836 835 833 832 830 828 827 826 825 825 824 823 822 821 821 820 818 818 817 815 814 813 812 811 809 808 807 806 805 804 803 801 800 799 798 798 799 799 800 800 801 803 804 806 807 808 809 811 813 816 820 823 827 829 830 832
850 850 850 849 848 848 848 847 847 846 846 845 844 844 843 842 841 841 840 839 839 838 838 838 838 837 837 836 835 834 833 832 830 828 827 825 824 823 823 822 821 820 820 819 818 817 816 815 814 813 812 810 809 808 807 806 805 804 803 801 800 799 797 796 796 796 796 797 798 799 801 804 806 809 811 813 813 812 814 818 822 825 827 829 830
850 850 850 849 849 848 848 847 847 846 846 845 844 844 843 843 842 841 840 839 838 838 838 837 837 836 836 835 834 833 832 830 828 827 826 824 823 822 821 820 819 818 818 817 816 816 815 814 813 812 811 809 808 806 805 804 803 802 801 800 799 797 796 795 794 794 794 794 796 797 799 802 805 808 811 815 818 817 818 820 823 825 827 829 830
850 850 849 849 849 848 847 847 847 846 846 845 844 844 844 843 843 842 840 840 839 838 838 837 837 836 836 835 834 832 831 829 828 826 825 823 822 821 819 818 818 817 816 816 815 815 814 813 812 811 809 808 806 805 804 803 801 800 799 798 797 796 794 793 793 792 792 793 794 796 798 801 804 807 810 814 818 822 823 824 825 827 829 830 830
850 850 849 849 848 848 847 847 847 846 846 845 845 844 843 843 842 841 840 840 839 839 839 838 837 836 835 834 833 832 831 829 828 826 824 823 821 820 818 818 817 817 816 815 815 814 813 812 811 809 808 806 805 804 802 801 800 799 798 797 796 795 793 792 792 792 792 792 794 796 798 801 803 806 810 814 818 823 826 827 827 829 830 831 831
850 850 849 848 848 847 847 847 846 846 846 845 845 844 843 843 842 841 840 840 840 840 839 839 837 836 835 834 832 831 830 829 827 826 824 823 821 819 818 818 817 817 816 815 814 813 811 810 809 808 806 805 804 802 801 800 799 798 797 796 795 794 793 792 792 792 792 793 795 797 800 803 805 808 810 814 818 822 826 829 829 831 832 832 831
849 849 848 848 847 847 846 846 846 846 846 845 844 844 843 843 842 842 841 841 840 840 839 838 837 836 835 833 832 830 829 828 827 825 824 822 821 819 819 818 817 816 815 814 813 812 810 809 807 806 805 804 803 801 800 799 798 797 796 795 795 794 793 793 793 793 794 794 796 799 802 805 808 811 812 814 817 821 825 829 831 833 833 833 832
848 848 847 847 847 846 846 846 846 846 846 845 844 844 844 843 843 842 842 841 840 839 839 838 837 836 835 833 832 830 829 827 826 825 824 822 821 820 819 819 818 816 815 814 813 811 809 808 806 805 804 803 801 800 799 798 798 797 796 796 795 795 795 795 796 796 796 796 798 801 805 808 812 814 815 816 818 822 827 831 833 834 834 833 832
848 847 847 847 847 846 846 846 846 846 845 845 845 844 844 844 843 843 842 841 840 840 839 838 837 836 835 834 832 831 829 828 827 826 825 824 823 822 820 819 818 816 815 814 812 811 809 808 806 805 803 802 801 799 798 798 798 797 797 797 797 797 798 798 799 799 799 800 802 805 808 811 814 816 817 818 821 825 830 833 834 835 834 833 832
847 847 847 847 846 846 846 846 846 845 845 845 845 844 844 844 844 843 842 842 841 840 840 839 838 837 836 834 833 832 831 830 829 828 827 825 824 823 821 820 818 817 816 814 813 811 810 808 806 805 803 802 800 799 799 799 799 799 799 799 800 800 801 802 803 803 804 805 807 809 811 813 816 818 819 821 824 829 832 833 834 834 833 833 833
847 847 847 846 846 846 846 845 845 845 845 845 845 845 844 844 844 843 843 842 842 841 841 840 839 838 837 835 834 833 832 831 830 828 827 826 825 823 822 820 819 817 816 815 813 812 810 809 807 805 804 802 801 800 800 800 801 801 802 802 802 804 805 806 807 807 808 809 810 812 814 816 818 820 822 824 828 831 833 833 834 834 834 833 833
847 847 846 846 845 845 845 845 845 845 845 844 844 844 844 844 844 843 843 843 842 842 841 840 839 838 837 836 834 833 832 831 830 829 828 827 825 824 823 821 820 818 817 816 814 813 812 810 808 807 805 804 803 802 802 802 802 803 804 805 806 808 809 810 810 811 811 812 814 815 816 818 820 822 824 827 829 831 832 833 833 834 834 834 833
846 846 846 846 845 845 845 845 845 844 844 844 844 844 844 844 844 844 843 843 843 842 842 841 840 839 838 836 834 833 832 832 831 830 829 827 826 825 824 822 821 819 818 817 816 815 813 812 810 808 807 806 805 804 804 805 805 805 807 808 810 811 813 814 814 815 815 816 817 818 819 821 822 824 826 828 830 831 832 833 833 833 833 833 833
846 846 845 845 845 845 845 845 845 844 844 843 844 844 844 844 844 844 844 844 843 843 842 841 840 839 838 837 835 834 833 833 832 831 830 828 827 826 825 823 822 821 820 818 817 816 815 814 813 811 810 809 808 808 808 808 809 809 810 812 813 815 816 817 817 818 819 819 820 821 822 823 825 826 828 829 831 832 833 833 833 833 833 833 833
845 845 845 845 845 845 845 845 844 844 843 844 844 844 844 844 844 844 844 844 843 843 842 841 841 840 839 838 837 836 835 834 833 832 831 830 829 827 826 825 824 823 822 821 819 818 817 816 815 814 813 812 812 812 812 812 812 813 813 815 816 818 819 820 821 821 822 822 823 824 825 826 827 828 830 831 832 832 833 833 833 833 833 833 833
845 845 845 845 845 845 844 844 844 844 844 844 844 844 844 844 844 844 844 844 844 843 843 842 841 841 840 839 839 838 837 836 835 834 833 831 830 829 828 827 826 825 824 823 822 821 820 819 818 817 816 816 815 815 815 816 816 816 817 818 819 821 822 823 823 824 825 825 826 826 827 828 829 830 831 832 832 833 833 833 833 833 833 833 833
844 845 845 845 844 844 844 844 844 844 844 844 844 844 844 844 845 845 845 844 844 843 843 843 842 842 841 841 840 839 838 838 837 836 835 834 833 832 831 830 828 827 827 825 824 823 822 821 821 820 819 819 818 818 818 819 819 820 820 821 822 823 824 825 825 826 826 827 827 828 829 829 830 831 832 832 833 833 833 833 833 833 833 833 834
844 844 844 844 844 844 844 844 844 844 844 844 844 844 844 845 845 845 845 844 844 844 844 843 843 843 842 842 841 841 840 839 838 838 837 836 835 834 833 832 831 830 829 828 827 826 825 824 824 823 822 822 822 822 822 822 822 823 823 824 825 825 826 827 827 827 827 827 828 829 830 831 831 832 832 833 833 833 834 834 834 834 834 834 835
843 843 843 843 843 843 843 843 843 844 844 844 844 844 844 844 845 845 845 845 844 844 844 844 844 844 843 843 842 842 841 840 840 839 838 838 837 836 835 835 833 832 831 830 829 828 828 827 827 826 826 825 825 825 825 825 825 825 826 826 827 827 827 828 828 828 828 829 829 830 831 832 832 833 833 833 834 834 834 834 835 835 835 836 836
842 842 842 842 843 842 842 842 843 843 843 844 844 844 844 844 845 845 845 845 845 845 844 844 844 844 843 843 843 842 842 841 841 840 840 839 838 837 837 836 835 834 833 832 831 831 830 830 829 829 828 828 827 827 827 827 827 827 828 828 828 828 828 829 829 829 830 830 831 832 832 833 833 833 834 834 834 834 835 835 835 836 836 836 836
841 841 841 842 842 842 842 842 842 843 843 843 843 844 844 844 844 845 845 845 845 845 844 844 844 844 844 844 843 843 843 842 842 841 841 840 839 839 838 837 836 836 835 834 834 833 832 832 831 831 830 830 829 829 829 829 829 829 829 829 829 829 829 830 830 831 831 832 833 833 833 834 834 835 835 835 835 835 836 836 836 836 836 836 836
Wind_Speed
22 21 21 19 19 20 20 19 17 15 14 15 17 16 15 13 12 11 10 10 10 9 7 5 4 4 5 5 6 7 7 6 7 7 7 7 7 7 7 7 8 8 8 9 9 10 11 11 13 14 14 14 14 15 15 15 17 17 17 16 14 12 12 8 4 7 12 14 11 11 15 17 16 16 15 15 17 16 14 14 13 11 11 9 8
22 22 21 21 20 20 19 18 16 14 14 15 16 16 14 13 12 11 10 10 9 8 7 6 5 5 6 6 7 8 7 8 8 8 7 7 7 7 6 6 7 8 9 9 9 9 9 9 11 12 14 15 15 15 15 15 16 17 17 15 14 14 13 9 5 6 11 15 14 13 16 18 16 16 17 16 17 17 15 14 13 12 12 11 10
22 22 22 21 21 21 19 18 16 15 15 15 15 14 13 12 12 11 10 9 9 8 7 7 6 5 6 7 6 6 7 7 7 7 7 7 7 7 7 7 8 9 8 8 7 6 6 6 6 9 13 16 17 16 15 15 14 15 16 16 15 16 15 11 7 7 9 13 15 14 15 19 17 14 17 18 18 17 15 13 14 14 14 13 12
20 21 21 21 21 21 20 18 17 16 15 14 14 13 12 12 12 10 9 9 9 9 8 7 6 6 6 6 6 5 5 5 6 6 6 5 6 7 7 7 8 8 8 7 6 5 5 4 3 4 8 13 17 18 17 16 15 14 16 17 17 17 17 14 9 7 8 10 14 14 14 18 17 14 16 19 19 19 16 15 15 15 15 15 14
19 20 20 20 20 19 18 17 16 16 15 14 13 13 13 13 12 10 9 9 9 8 7 7 7 7 7 6 6 5 5 4 4 5 5 5 5 6 7 7 7 7 6 5 5 4 4 3 2 2 4 7 12 16 18 17 17 16 16 17 18 18 18 16 12 9 9 9 12 14 14 15 15 15 18 17 17 18 18 17 17 15 15 16 15
19 19 19 19 18 17 17 17 16 16 15 14 13 13 14 13 11 10 9 9 9 7 7 7 8 8 8 7 7 5 4 4 4 4 5 5 5 5 6 8 8 7 6 4 4 4 3 4 4 4 3 4 7 10 13 15 15 16 17 17 17 19 19 18 14 12 11 10 9 12 15 16 15 16 19 18 15 14 15 16 17 17 16 15 15
19 18 16 15 14 14 15 16 15 14 14 14 14 15 14 13 11 10 9 9 8 7 6 7 7 8 8 7 7 5 4 4 4 4 4 4 4 4 5 6 7 6 5 4 4 5 5 5 5 5 4 3 4 5 7 10 11 13 14 15 15 17 17 16 14 13 12 11 10 10 13 17 16 14 17 19 17 14 14 13 13 16 17 15 14
20 18 14 13 12 12 13 14 13 13 13 13 13 13 13 12 10 9 9 8 7 6 5 5 6 7 7 6 6 5 4 4 4 4 4 4 4 4 5 6 6 5 5 5 5 6 6 6 5 4 4 3 3 3 4 6 8 10 11 12 12 13 13 13 12 12 12 12 12 10 10 13 16 15 15 17 16 15 17 17 13 12 15 15 13
20 19 17 15 14 13 13 14 14 13 13 13 11 8 8 10 9 9 9 8 7 5 4 4 4 5 6 5 5 5 4 3 4 5 6 5 4 4 6 6 6 5 5 5 5 5 6 6 5 5 5 4 4 4 5 6 7 9 10 11 12 12 12 11 11 11 11 11 11 10 10 10 13 14 15 17 18 16 16 19 15 10 10 11 12
22 21 20 18 17 15 14 15 16 14 12 10 8 6 6 8 9 8 8 8 6 5 4 3 4 5 5 5 4 5 5 4 4 6 6 5 4 4 5 7 7 6 6 6 6 6 6 6 6 6 5 6 5 5 6 7 8 9 10 10 11 12 13 12 11 11 11 11 11 11 11 11 13 16 17 19 21 18 15 17 15 11 10 9 9
22 22 21 19 18 17 16 17 17 16 13 11 9 8 8 8 9 8 7 7 6 6 4 4 5 6 5 4 4 3 3 3 2 4 5 5 4 4 4 5 6 7 7 7 6 7 7 7 7 7 7 7 7 7 7 8 9 10 10 10 10 11 12 13 13 13 12 11 11 11 12 12 14 18 19 18 20 22 19 16 14 12 13 11 10
24 24 22 20 19 19 19 19 19 18 17 15 13 11 10 10 10 9 8 8 7 6 5 5 7 8 7 7 6 5 4 2 1 1 2 3 3 3 3 3 4 5 6 6 6 7 8 8 9 9 9 10 10 10 10 10 11 11 11 12 12 11 12 12 12 13 14 12 11 11 13 14 13 15 19 19 20 22 20 15 13 13 14 15 12
28 27 26 25 23 23 22 23 23 22 20 19 18 16 14 14 14 14 13 12 11 10 9 9 11 11 11 10 9 8 7 5 3 1 1 2 3 3 3 3 4 4 5 5 6 7 8 9 10 10 11 11 10 11 12 12 13 13 13 13 14 13 14 14 14 14 15 14 13 13 14 15 13 14 18 18 17 18 17 15 14 15 14 14 13
30 30 29 28 28 27 27 27 27 26 25 24 23 21 20 19 19 19 18 16 15 15 14 13 13 13 12 11 11 10 8 6 4 2 0 1 2 3 4 5 5 6 7 7 8 9 10 10 11 12 13 13 12 12 12 13 14 15 15 16 17 17 17 17 17 17 17 18 17 16 17 18 17 16 17 15 13 13 13 12 12 14 15 15 15
32 32 30 29 29 29 29 29 29 28 27 26 26 25 24 23 22 21 20 19 19 18 17 16 16 15 14 12 12 11 10 8 5 3 1 0 1 2 3 4 4 5 6 7 8 9 10 11 12 13 14 14 15 14 13 14 14 15 16 17 18 19 19 20 20 20 21 21 21 20 20 20 20 19 18 17 16 15 15 14 15 16 16 16 15
31 31 30 28 27 27 27 27 27 25 25 25 24 23 23 23 21 20 20 19 18 18 18 17 16 15 13 12 12 12 10 8 6 4 2 1 0 1 2 3 3 4 5 7 8 8 9 10 10 12 13 13 14 13 13 13 14 15 17 18 19 20 21 21 22 22 23 23 23 23 23 22 22 21 20 20 19 19 19 18 18 18 16 13 11
29 28 28 27 26 24 24 23 22 20 19 19 19 18 18 18 17 16 17 17 17 16 16 16 15 14 13 12 11 10 9 7 6 5 4 3 2 2 3 3 4 5 6 7 8 8 9 10 10 12 12 12 12 12 12 12 13 14 15 16 18 20 22 22 22 23 24 24 24 24 24 24 24 23 22 20 18 18 18 17 18 18 15 12 10
26 26 25 24 23 22 21 21 20 19 18 16 15 13 11 10 11 12 13 14 14 14 13 13 13 13 13 12 10 9 9 8 7 7 7 6 6 6 7 7 7 7 8 9 9 9 10 11 11 12 12 12 13 13 12 12 12 13 13 14 14 16 20 22 23 23 24 24 24 25 24 24 24 23 24 22 21 21 20 20 20 19 16 14 12
25 24 23 22 21 20 19 18 17 17 18 17 16 14 10 8 6 5 6 6 7 7 8 9 10 10 10 10 9 8 8 9 9 9 9 10 9 9 9 10 10 11 11 12 12 12 13 12 12 12 12 12 14 14 13 13 12 12 12 13 15 16 17 19 22 23 24 26 26 25 25 25 25 25 26 24 23 22 22 22 22 20 17 15 14
24 23 22 21 21 20 19 18 16 14 15 15 15 14 13 10 7 5 5 4 3 3 3 5 7 7 8 9 9 8 8 8 9 10 11 11 11 11 10 10 11 12 12 13 14 14 14 14 14 14 13 14 15 15 15 14 13 12 12 13 16 17 16 17 20 22 23 25 26 25 24 25 25 26 25 23 22 22 21 21 21 20 18 17 16
22 21 21 21 21 20 19 18 17 15 14 13 12 12 12 11 9 8 8 7 6 5 3 3 4 4 5 7 8 8 7 7 8 9 9 10 11 10 10 9 10 11 12 11 11 11 11 12 15 16 15 15 16 17 18 17 16 15 15 15 17 17 17 18 20 22 22 23 23 24 23 23 23 23 22 21 21 21 21 19 19 19 19 17 16
19 19 19 19 19 18 18 17 16 15 14 13 13 12 10 9 9 8 8 7 7 7 6 3 2 2 4 5 6 8 8 8 9 10 10 11 11 11 11 10 11 12 12 12 11 11 12 15 17 18 18 17 17 18 19 20 20 20 20 20 19 18 19 19 19 21 23 23 21 21 20 20 20 21 21 22 22 22 20 19 20 20 20 18 16
20 19 18 18 17 17 17 17 16 15 14 13 12 11 10 8 8 8 7 6 5 5 5 4 4 3 3 5 7 9 10 10 10 11 11 11 12 12 12 12 13 13 14 15 15 15 17 19 20 20 21 20 20 20 20 21 22 23 24 24 22 20 20 19 17 20 23 23 21 20 19 19 19 20 22 23 23 22 21 19 20 20 19 17 16
20 20 19 19 18 17 16 16 15 14 13 13 11 10 8 7 6 6 6 5 4 3 4 4 4 4 5 7 9 11 13 13 12 12 12 12 12 12 12 12 13 13 14 15 16 17 18 20 21 22 23 23 23 24 24 23 24 23 24 24 22 21 21 20 17 19 22 24 24 24 23 21 21 23 25 26 25 24 22 20 20 20 19 17 15
17 16 16 15 14 14 14 13 13 13 12 11 10 9 8 7 5 5 4 4 3 2 3 3 4 4 5 6 7 10 12 14 14 14 13 13 12 12 12 12 12 14 15 15 16 17 19 20 20 21 23 23 24 25 25 25 25 25 24 23 21 20 22 21 17 17 21 25 26 26 25 25 26 27 27 27 25 24 23 22 21 19 18 16 14
15 15 14 13 12 12 11 11 11 11 11 10 9 9 9 7 6 5 4 3 3 3 3 3 4 4 5 6 7 9 10 12 14 15 16 16 16 15 14 13 13 14 16 17 17 18 20 21 21 21 22 23 23 24 25 25 26 26 26 23 21 21 23 21 17 18 22 25 25 24 25 28 29 28 27 27 26 25 24 24 22 19 17 15 13
14 14 13 13 12 12 11 11 11 10 10 10 9 8 8 7 6 6 5 4 4 4 4 5 5 6 6 7 8 9 9 11 12 14 15 17 18 18 18 18 17 17 18 19 19 21 22 23 23 22 21 20 21 22 24 24 24 25 23 19 17 20 23 21 18 20 23 24 24 25 28 30 30 29 29 29 28 28 27 27 25 21 17 14 12
13 13 12 11 11 11 11 11 10 9 10 10 9 9 8 8 7 7 7 6 5 5 6 6 7 7 8 8 9 9 10 10 11 13 15 16 18 19 19 20 19 19 20 21 22 23 24 25 25 23 18 15 15 16 17 18 18 18 17 14 13 17 20 21 20 21 22 23 24 27 29 30 31 31 32 31 30 30 28 26 24 22 19 14 12
12 12 11 11 11 10 10 10 10 9 10 10 10 10 11 10 9 8 8 7 6 6 7 7 7 8 8 9 9 10 10 10 12 14 16 17 17 18 19 19 19 20 21 22 22 23 24 24 23 19 15 13 13 13 13 13 14 14 14 14 15 15 16 17 19 20 21 24 27 29 29 30 31 32 32 32 32 31 28 25 23 20 16 13 10
10 10 10 9 9 9 9 9 10 10 10 10 10 10 12 13 11 10 9 7 6 6 6 6 6 6 7 8 8 8 10 13 15 16 17 16 16 17 17 17 18 20 20 19 18 19 19 17 15 13 12 12 12 12 12 12 13 14 14 15 17 18 17 17 18 18 19 22 27 29 29 31 33 33 34 35 34 31 27 24 21 18 15 12 11
7 7 7 7 8 8 7 8 9 9 9 9 9 9 9 10 11 12 11 8 6 5 5 5 5 5 5 7 8 8 9 12 14 15 16 16 16 15 15 16 16 17 17 16 15 15 14 12 12 11 10 10 11 12 12 13 14 15 15 15 16 18 19 19 18 17 18 20 23 27 30 32 32 31 32 35 34 30 25 21 19 16 13 12 11
5 5 5 6 7 7 5 5 6 7 8 8 8 8 8 8 9 11 12 11 9 7 6 5 5 4 4 4 7 9 11 12 13 14 14 14 14 14 15 16 16 16 15 14 14 14 13 12 11 11 10 10 11 12 12 13 14 14 14 14 14 14 17 19 18 16 19 21 22 26 30 31 30 28 27 26 24 21 20 18 16 14 12 11 10
4 5 5 5 5 5 5 4 5 7 8 8 7 8 8 8 8 9 10 11 12 11 10 8 7 6 5 5 6 9 11 12 12 12 12 12 12 13 14 15 14 14 13 11 11 11 11 11 11 11 11 12 13 13 13 14 13 12 12 13 13 13 16 19 18 16 19 21 22 25 28 29 30 30 28 24 19 16 15 14 13 12 11 10 10
4 4 5 5 5 4 4 5 6 8 9 8 8 7 7 7 7 8 8 9 10 11 10 11 10 8 7 7 7 8 9 10 10 11 11 10 10 12 13 12 10 9 8 7 7 9 10 11 12 12 13 13 13 14 14 13 13 12 12 11 12 13 16 17 15 15 18 21 23 24 25 28 31 31 29 26 21 18 15 13 11 10 9 10 10
4 4 5 6 6 5 5 5 7 8 9 8 7 7 7 7 7 7 8 8 9 9 8 10 12 11 10 9 9 9 9 9 9 10 11 11 11 12 12 9 8 8 8 6 6 8 9 11 12 13 14 14 13 12 13 14 14 14 12 11 12 14 14 13 13 15 18 22 24 25 27 31 33 32 29 24 21 18 14 11 10 9 8 9 10
4 4 5 6 7 6 6 7 8 9 10 10 8 8 9 9 8 8 8 8 8 7 7 9 12 12 12 12 10 9 10 11 10 11 12 11 11 12 11 9 9 9 9 8 9 9 10 11 11 12 13 13 12 11 12 15 16 15 13 12 12 13 12 11 13 16 20 23 25 28 31 33 31 29 26 23 21 18 13 9 8 8 8 8 9
4 4 5 6 7 7 7 7 8 9 11 12 10 9 9 9 9 8 7 8 9 9 7 8 10 11 13 15 13 11 11 12 11 13 14 13 12 13 12 10 10 9 9 9 10 10 10 10 10 11 11 11 10 10 11 13 14 14 13 11 11 10 9 11 15 20 24 27 27 29 30 29 27 26 25 24 22 18 13 9 8 8 8 8 8
5 5 6 7 7 6 6 6 7 8 11 12 10 9 9 9 8 8 7 8 10 10 9 9 10 10 11 15 16 15 14 13 14 15 16 16 15 16 16 14 12 10 9 9 9 10 10 10 9 9 10 9 9 10 11 11 9 9 9 9 8 8 10 14 18 22 26 29 29 28 27 26 24 23 23 22 20 17 13 10 9 9 9 9 8
5 5 6 7 6 5 5 5 6 7 10 11 9 8 8 8 8 8 8 8 9 10 9 9 10 9 10 13 16 16 14 13 13 13 14 15 16 16 16 15 13 11 11 10 9 10 11 10 10 10 10 9 8 10 10 7 4 4 6 8 10 12 15 17 20 23 26 27 27 26 25 23 20 18 17 17 18 17 14 11 10 10 9 8 8
3 4 5 6 5 4 4 5 5 7 8 9 8 6 6 8 8 8 8 8 8 8 8 8 8 9 11 14 16 14 11 9 9 9 11 14 15 15 14 14 12 12 12 11 10 11 11 12 11 10 10 9 8 8 7 4 1 3 7 11 14 16 16 18 20 22 23 24 23 22 21 20 18 17 16 16 19 18 15 11 10 9 8 8 8
2 3 5 6 5 4 3 4 4 5 7 8 7 4 5 8 9 9 8 8 7 6 7 7 6 8 11 14 15 11 8 7 7 8 10 12 13 13 14 14 12 11 12 12 12 12 12 12 11 10 9 8 7 5 4 1 3 7 10 13 16 16 15 16 19 20 21 20 20 20 20 18 17 17 17 18 19 17 13 10 10 9 8 7 7
2 2 4 5 4 3 2 2 3 5 6 6 5 3 4 7 8 9 9 9 8 7 7 7 6 7 11 14 14 11 8 7 8 8 9 11 11 12 13 14 13 12 12 12 12 11 11 11 10 9 8 7 6 5 5 5 9 12 13 14 15 15 14 15 16 17 18 18 18 18 18 17 16 17 18 20 18 15 12 11 10 9 7 7 6
2 2 4 5 4 3 2 2 3 4 5 4 2 2 4 6 6 7 9 9 9 8 7 7 7 8 10 13 15 13 10 10 10 9 9 10 11 12 13 13 13 12 11 11 10 9 9 10 10 9 8 7 6 7 9 11 14 16 16 16 16 16 15 14 14 15 16 17 18 18 17 17 18 20 20 19 17 14 12 11 9 8 7 7 7
2 2 4 5 5 3 3 3 4 4 4 2 2 3 4 5 5 7 9 9 8 7 6 7 8 8 9 11 14 13 11 11 11 11 10 10 11 12 13 12 12 12 12 11 10 8 8 9 11 11 11 12 12 14 15 16 17 17 17 17 17 16 15 14 14 15 16 17 17 17 17 18 20 20 18 16 14 13 11 9 8 7 8 7 7
2 2 3 4 4 3 2 3 4 4 4 4 4 4 4 5 4 6 7 8 8 7 5 6 8 9 9 10 11 11 10 10 11 12 12 12 11 11 11 11 11 11 11 12 12 11 11 11 11 12 13 14 15 16 16 16 17 17 17 17 16 15 13 13 13 13 13 14 15 16 17 18 18 16 14 13 12 11 9 8 7 7 7 7 7
3 2 2 3 3 3 3 4 4 5 5 5 4 3 4 4 4 5 7 8 8 8 6 6 7 8 9 9 10 10 10 11 11 12 13 13 13 12 12 12 12 12 12 12 13 14 15 15 14 14 15 15 15 16 16 16 17 17 16 15 14 14 13 12 11 11 10 11 13 14 15 16 14 13 12 11 9 8 7 7 7 7 6 6 6
4 3 1 3 3 3 3 4 4 4 5 4 4 4 4 3 4 6 7 6 7 7 6 6 6 7 7 8 9 9 10 11 12 14 14 15 14 14 15 15 14 14 15 15 16 17 17 18 17 18 18 18 18 18 17 16 15 15 15 14 13 13 11 10 10 9 9 9 11 13 14 13 12 10 10 9 8 7 7 7 7 7 7 7 6
4 4 1 2 3 3 3 4 4 4 4 4 4 5 5 5 5 6 5 3 4 5 5 6 6 6 6 8 9 9 9 10 11 14 15 15 15 15 15 15 16 16 16 17 17 18 18 19 18 18 18 18 18 17 16 15 14 13 13 12 11 10 9 8 8 8 8 8 10 12 12 11 10 9 8 8 7 7 7 7 7 8 7 7 7
4 4 3 1 3 3 3 3 4 4 4 4 4 4 5 5 5 4 3 2 3 4 4 5 5 5 6 7 9 10 10 10 11 13 13 13 14 14 14 13 14 14 14 15 15 15 15 16 16 16 16 15 15 14 13 13 12 11 11 10 9 8 7 6 6 7 7 8 10 10 10 9 9 8 7 7 7 7 7 7 8 7 6 6 6
4 4 4 2 2 3 3 3 5 4 3 3 3 4 4 3 3 3 2 3 3 3 3 4 5 5 6 7 8 9 9 9 10 10 11 11 12 12 12 12 12 13 13 13 14 13 13 13 13 13 13 13 12 11 10 10 10 10 10 9 8 7 7 7 7 8 9 9 9 9 8 8 8 7 6 6 6 6 5 5 6 6 5 6 6
5 5 5 4 2 3 3 3 4 4 3 3 4 3 3 3 3 3 3 3 3 3 4 4 5 6 6 7 7 7 8 8 9 10 11 12 12 12 12 13 13 12 13 13 13 13 13 12 12 12 12 12 11 11 11 11 11 11 10 10 9 8 8 8 9 10 10 9 8 8 7 6 6 6 5 5 5 4 3 3 3 3 3 4 5
Wind_Direction
198 198 197 198 199 200 202 203 204 203 197 192 189 189 189 189 187 181 173 167 166 167 164 157 146 157 165 148 133 139 142 143 145 146 150 156 162 167 168 169 176 182 184 182 180 181 184 187 188 187 186 188 192 192 193 197 199 204 208 202 200 199 191 189 177 162 181 191 184 182 188 188 191 193 193 193 191 188 187 189 190 188 191 196 202
195 194 192 193 195 196 197 199 198 196 190 187 187 189 190 192 189 182 177 173 169 166 159 151 145 149 155 144 127 127 129 131 134 136 138 137 138 144 146 151 160 164 167 168 171 177 181 186 191 193 193 194 194 195 199 202 200 203 210 206 202 203 198 194 187 170 181 192 192 190 192 193 196 199 200 200 197 198 199 200 201 202 205 208 211
194 192 191 190 190 189 189 190 189 187 186 186 188 190 190 190 187 180 177 173 167 162 152 146 142 136 142 145 134 128 130 132 133 135 132 124 121 127 134 141 146 147 150 154 158 163 162 164 175 185 194 198 199 201 204 207 203 202 210 213 211 212 209 203 201 191 184 188 193 194 195 198 201 202 204 206 205 206 209 212 214 215 215 216 217
192 190 188 186 184 184 184 184 184 184 184 184 187 189 187 184 181 177 175 168 161 158 151 147 147 140 138 142 140 133 131 136 142 146 143 133 128 131 138 147 149 144 142 143 145 148 148 141 132 157 183 194 202 206 208 212 213 209 213 219 222 225 224 221 220 211 198 193 194 197 198 200 203 205 205 209 212 213 216 221 223 225 225 225 226
190 188 187 183 180 179 179 178 179 181 183 184 184 182 179 175 173 170 167 159 154 157 157 154 154 154 150 148 145 140 132 133 141 149 152 145 139 143 152 160 160 152 145 142 144 148 154 157 152 163 173 181 194 203 208 213 217 217 219 222 225 233 236 233 228 220 217 210 200 201 203 200 204 211 210 209 213 217 222 226 227 229 232 234 235
181 179 180 177 171 171 171 171 174 178 180 180 176 172 169 168 165 162 159 153 149 152 157 156 154 156 158 156 153 147 142 143 143 149 157 151 144 150 161 166 165 157 150 150 159 171 177 179 183 182 169 164 174 186 198 207 214 219 224 225 228 236 241 238 231 223 223 224 213 208 209 207 207 212 215 214 214 216 221 228 233 236 239 241 240
167 163 161 157 152 155 159 161 164 169 172 172 168 166 166 163 157 154 153 150 147 147 149 152 155 157 159 159 155 150 146 150 149 149 159 163 165 172 175 170 166 162 157 156 168 180 182 181 178 168 151 143 156 166 184 201 212 221 228 233 236 242 244 238 227 220 220 223 224 217 213 212 210 212 218 220 221 224 225 227 231 236 241 242 236
161 158 152 144 138 140 144 145 145 145 148 152 155 160 163 159 153 154 154 151 151 152 152 152 157 163 166 166 165 163 154 148 150 156 161 168 182 196 196 183 173 168 167 166 168 172 175 177 179 177 169 167 182 193 204 218 225 230 234 238 242 247 247 236 223 218 217 220 224 220 214 215 214 214 218 220 223 228 229 229 229 230 234 234 227
146 146 145 143 140 138 135 133 134 132 132 139 146 152 155 156 157 161 163 161 160 162 162 162 167 172 173 171 171 175 174 163 161 166 167 166 169 182 193 195 192 182 174 178 181 178 178 181 184 188 193 195 202 212 222 230 235 240 243 243 244 248 246 236 223 216 217 221 222 217 215 218 215 213 215 219 223 225 227 230 230 225 222 218 215
133 133 135 135 137 138 134 132 136 142 147 153 160 158 148 153 161 167 170 172 176 177 179 189 196 191 184 180 175 178 185 183 172 173 176 176 170 167 176 190 199 200 198 201 205 204 204 205 208 213 220 226 232 236 235 233 233 236 240 243 246 249 246 239 228 219 220 225 225 220 221 223 220 220 223 226 228 229 231 231 228 219 212 203 204
124 124 125 129 132 131 130 129 130 134 141 146 150 146 140 143 150 158 166 170 177 185 192 201 193 179 170 166 161 164 176 182 183 190 194 194 190 180 175 184 196 205 214 218 220 220 221 225 230 235 243 249 255 258 256 251 245 241 239 239 242 245 244 240 234 230 230 231 231 229 230 233 232 230 231 234 236 239 238 233 225 215 211 209 208
115 113 115 120 123 120 122 123 120 117 120 123 125 127 128 128 130 132 135 138 145 153 155 154 148 138 132 129 124 117 111 98 85 245 234 227 224 214 203 202 201 208 218 224 229 234 237 244 249 254 260 266 270 273 272 268 260 253 247 243 242 243 243 241 238 238 239 240 240 237 238 243 241 238 239 241 242 243 242 235 225 218 218 223 223
105 105 108 110 112 112 113 114 112 108 107 109 112 115 116 113 110 109 109 112 117 118 118 121 123 122 122 120 114 107 99 87 79 58 270 261 262 259 258 261 256 254 255 252 254 257 260 265 268 271 274 275 278 279 278 274 266 259 254 250 248 248 248 248 247 247 247 246 244 244 248 251 248 246 253 254 249 245 241 235 230 226 226 231 228
94 96 99 102 104 106 107 106 104 102 101 100 101 103 103 99 97 98 98 99 99 98 99 103 107 111 114 114 112 107 96 86 86 92 98 259 267 271 273 275 279 279 280 281 281 282 284 286 286 287 288 287 287 286 285 281 275 269 264 261 259 258 256 255 254 253 253 251 249 250 257 262 258 253 257 261 255 245 238 235 236 234 233 236 237
87 88 90 94 98 101 102 101 99 99 99 97 93 93 93 89 89 91 91 90 88 86 86 88 91 94 97 101 104 99 90 84 86 91 98 174 247 258 263 268 274 277 278 279 281 282 284 285 286 287 288 288 288 288 288 287 284 279 274 270 269 266 263 261 259 258 256 255 254 254 256 262 264 259 258 260 256 251 249 249 248 244 241 242 240
84 84 83 84 88 92 95 97 95 95 98 97 91 86 84 81 81 84 86 86 82 78 78 77 78 81 82 86 89 86 80 75 72 72 73 68 268 259 264 273 280 283 283 281 278 278 278 279 280 279 279 281 282 282 284 286 286 282 277 274 274 271 268 266 264 262 260 257 257 256 256 259 261 260 262 262 256 254 255 251 245 241 235 228 218
81 81 80 80 80 81 84 88 90 91 95 97 93 86 79 74 73 76 80 81 76 69 65 65 65 67 67 69 72 71 66 57 46 39 28 14 6 352 339 329 316 307 303 299 295 293 290 285 284 283 281 281 281 280 280 280 282 282 277 274 274 272 272 272 267 262 261 259 258 259 259 259 258 258 260 258 252 251 248 237 232 229 218 207 199
84 82 81 80 80 80 80 80 81 81 82 87 90 89 84 76 72 71 72 74 72 64 56 51 49 47 46 49 51 51 47 36 23 14 4 356 355 355 352 347 337 326 318 313 311 310 306 302 300 297 294 291 289 288 286 282 280 278 274 272 270 268 271 274 271 266 263 261 260 260 259 258 256 255 256 254 253 254 247 237 234 226 211 208 205
90 89 87 87 86 87 85 81 77 75 75 78 79 79 81 83 80 66 59 67 73 65 48 35 30 27 25 26 27 31 29 18 6 358 352 345 344 344 344 340 333 326 318 312 308 305 303 303 303 302 301 297 291 287 284 282 278 273 269 267 262 260 264 270 272 270 267 264 263 261 260 259 257 257 259 257 255 253 246 240 236 224 212 210 200
91 92 92 91 88 86 85 85 84 79 77 79 78 75 74 74 72 59 42 39 38 32 16 359 359 5 9 10 11 15 17 10 1 353 345 340 337 336 335 331 325 320 315 310 306 303 301 300 298 295 294 293 290 286 281 276 271 267 264 260 258 257 259 266 271 272 268 266 266 265 263 261 258 257 257 251 245 242 239 237 234 223 212 205 197
93 92 90 89 87 85 84 86 88 84 80 79 80 78 74 71 71 68 59 52 43 36 24 323 305 313 328 341 355 4 8 7 1 355 348 343 340 340 341 336 328 323 318 312 309 308 307 307 305 301 297 292 288 285 282 277 271 264 257 253 253 255 257 262 268 270 267 265 266 263 259 254 249 246 242 236 233 234 230 224 219 212 208 205 201
95 92 88 86 85 84 84 84 84 82 78 76 75 73 68 66 69 68 63 59 53 50 52 47 10 323 307 318 340 352 356 358 354 349 347 344 341 341 341 335 328 326 324 320 318 317 317 317 315 310 306 301 295 288 283 280 276 271 265 261 258 258 261 262 262 263 263 259 254 249 242 237 232 228 226 224 222 219 213 207 204 205 207 210 207
93 92 90 88 86 84 84 82 80 77 74 73 71 67 62 60 60 60 59 57 52 47 44 36 27 14 342 338 345 346 345 348 347 343 342 340 336 334 332 327 325 324 323 320 319 318 318 317 314 309 306 304 301 297 291 286 282 279 276 273 266 260 263 262 254 253 254 251 243 236 228 222 217 215 214 213 209 204 199 198 199 200 199 201 201
90 89 89 88 86 84 81 76 73 71 68 67 68 64 58 54 51 49 48 45 41 32 20 9 2 350 340 342 346 345 342 340 338 334 331 330 330 329 327 323 320 318 315 314 314 314 314 311 308 306 303 299 297 296 294 292 289 286 284 281 273 263 260 258 249 244 246 244 239 236 231 223 215 212 211 207 200 196 194 191 190 191 190 189 188
88 86 86 85 83 81 77 72 67 64 61 60 58 52 44 40 39 37 33 32 32 20 6 358 348 341 342 343 345 345 342 340 340 338 334 332 332 329 324 320 316 312 310 310 308 308 309 307 305 305 302 298 295 292 291 291 291 288 286 284 276 262 257 255 245 234 235 238 237 235 232 228 221 216 212 204 193 189 187 183 180 180 180 177 173
88 85 82 79 76 73 72 68 64 59 55 52 49 43 38 37 37 36 30 25 25 18 8 1 354 351 352 349 344 343 341 342 345 345 344 342 340 337 332 327 321 315 312 310 310 310 310 309 309 308 303 298 294 289 287 287 288 288 287 283 273 261 256 253 243 230 229 232 231 229 230 229 223 214 206 197 189 185 182 178 171 167 168 168 163
88 84 78 73 68 63 59 56 53 49 44 41 40 39 40 42 44 42 34 23 19 16 9 4 1 358 353 348 344 341 336 338 343 346 345 342 337 335 333 330 326 322 318 316 317 316 314 315 317 316 310 302 295 290 287 285 285 286 285 282 273 264 259 253 243 236 234 230 226 224 226 224 216 205 196 191 187 184 181 178 171 164 163 161 152
85 83 78 71 66 60 55 51 47 40 34 32 33 33 32 35 40 42 38 29 18 9 7 7 4 360 354 347 343 337 332 335 339 338 334 329 325 323 322 322 321 320 318 317 317 316 315 317 319 318 312 302 296 293 290 287 285 284 283 280 274 270 266 259 250 244 240 234 228 225 221 215 206 196 189 185 181 178 177 176 172 166 162 158 150
80 75 70 64 58 54 52 49 43 36 31 31 36 36 35 36 39 36 32 31 26 17 15 13 7 359 351 344 340 333 326 324 324 322 320 319 318 315 313 311 310 309 310 313 314 313 313 315 316 315 308 298 295 294 292 292 293 290 287 285 281 276 271 263 256 250 244 238 235 228 216 205 195 185 180 178 175 172 172 172 170 164 160 156 155
79 71 65 58 52 49 50 48 42 36 33 33 34 34 35 38 41 39 36 39 44 43 35 25 13 358 341 330 325 319 314 315 317 319 319 317 316 314 310 307 304 303 305 309 308 306 307 307 305 303 297 292 292 292 293 297 298 295 294 293 290 285 279 270 262 255 247 238 232 223 209 196 188 181 177 174 171 168 169 171 168 164 161 160 160
79 72 67 61 55 55 59 54 46 40 36 31 25 22 24 29 33 36 38 41 49 52 48 42 26 0 335 320 316 319 325 326 324 323 320 315 312 311 310 309 307 305 305 304 299 296 295 292 291 292 288 285 286 288 291 295 296 295 295 293 290 289 286 279 270 257 243 231 221 213 205 195 187 181 176 172 166 163 162 163 163 163 163 161 158
96 94 90 78 69 71 78 69 51 40 33 25 20 19 19 16 13 18 25 36 52 61 58 48 31 14 2 344 333 336 342 339 333 329 323 317 312 310 309 309 309 306 303 297 290 288 288 287 286 287 286 286 288 290 293 295 292 290 291 290 288 287 286 284 276 256 237 224 212 204 199 192 183 177 172 166 158 151 148 151 153 154 152 150 149
106 111 107 94 80 78 83 71 44 32 26 19 18 20 21 17 8 1 8 29 49 59 56 46 36 28 26 9 348 344 346 345 342 340 336 331 324 317 315 315 313 308 304 294 284 285 290 291 290 290 290 290 293 295 297 294 289 285 284 285 286 286 285 284 277 254 233 220 205 196 192 186 178 172 165 159 151 140 135 136 137 139 142 143 144
92 100 92 79 71 69 68 52 36 30 26 22 21 22 19 18 15 6 5 19 34 41 42 37 32 29 23 10 0 359 360 358 354 351 347 344 338 333 331 332 333 331 327 312 292 289 293 294 294 296 295 294 296 299 299 294 290 287 285 282 282 283 283 280 267 243 223 208 194 185 181 175 169 161 155 151 149 145 140 136 134 140 150 152 151
84 92 76 62 58 62 61 46 37 34 29 24 26 28 27 26 24 21 23 25 22 21 24 26 27 27 23 17 15 16 14 11 7 1 357 353 350 353 357 2 2 357 350 336 317 306 303 303 302 299 298 297 296 299 303 301 295 289 284 280 277 277 274 263 242 220 202 189 179 170 164 160 158 154 150 148 149 149 149 149 150 155 163 162 158
92 100 75 53 49 53 52 44 41 37 31 30 36 39 40 43 40 30 26 24 19 16 17 20 22 25 24 21 21 20 19 20 22 23 19 13 9 13 17 15 6 355 346 338 329 317 310 308 305 300 300 299 297 301 309 310 300 289 280 273 268 265 258 237 212 191 177 168 162 156 153 152 152 152 152 152 155 157 156 156 159 165 170 167 161
82 91 65 44 41 46 47 44 42 36 30 31 39 47 48 48 43 32 23 18 17 17 15 13 15 19 20 19 18 18 18 19 22 26 27 29 31 31 25 14 3 353 343 339 336 327 317 310 304 302 303 302 301 306 313 311 302 288 276 263 253 244 227 202 182 169 160 154 150 149 149 150 153 156 154 152 154 157 155 153 160 167 167 164 157
60 62 45 35 36 44 46 43 39 34 29 30 37 51 55 46 34 25 18 15 18 19 16 14 15 16 15 15 16 17 18 16 15 17 21 27 32 30 22 14 8 358 347 342 340 336 330 321 315 317 317 314 314 318 320 317 304 282 261 240 221 199 178 164 157 152 148 146 144 146 149 151 154 156 153 149 151 155 155 158 166 167 163 161 156
54 49 33 30 36 44 45 40 32 29 27 28 35 53 57 44 29 22 17 17 23 22 17 16 19 18 13 13 15 17 16 12 10 11 15 21 24 22 15 10 6 1 356 350 344 342 341 336 332 335 334 331 331 329 325 320 298 245 217 192 168 154 148 144 141 139 139 139 140 144 147 148 149 149 147 149 157 162 161 163 168 168 164 160 154
64 50 30 29 37 40 36 30 25 25 27 26 31 53 60 45 33 27 23 23 25 22 15 14 16 16 14 12 11 11 10 7 5 9 15 19 19 16 10 4 360 360 0 357 352 351 350 346 344 345 344 342 344 342 336 330 298 174 170 158 145 138 137 137 136 135 135 135 136 138 139 141 144 148 151 157 163 166 164 162 163 162 156 151 150
81 55 32 30 36 37 32 27 21 21 22 20 23 48 65 49 39 37 36 29 20 15 16 16 15 17 18 16 14 14 16 13 10 13 17 19 18 15 9 2 357 359 3 4 2 359 355 351 350 352 354 355 358 2 2 16 135 145 148 145 139 136 138 139 139 140 139 138 139 140 140 143 148 153 156 158 160 162 161 157 154 150 144 141 144
100 65 36 32 37 40 40 35 20 11 8 9 16 54 77 55 43 47 49 39 23 16 19 19 16 16 18 21 25 29 29 23 20 19 19 18 17 15 11 5 3 4 8 10 8 4 0 1 2 1 5 14 27 43 61 108 138 142 140 135 132 133 137 140 142 143 142 140 141 140 141 144 149 151 153 155 158 159 156 152 149 146 138 131 129
116 74 41 36 42 49 52 41 18 1 356 360 20 104 89 60 48 59 62 47 28 19 20 19 17 15 17 26 37 43 38 28 25 23 19 18 18 17 15 11 9 12 18 21 18 12 15 29 38 40 41 49 70 91 103 118 132 136 134 130 128 128 129 131 135 138 139 139 140 140 141 145 148 150 152 156 158 158 155 151 148 141 131 124 119
138 77 41 37 44 56 61 43 17 5 13 45 112 122 86 60 58 73 71 53 31 23 24 23 23 23 22 28 37 41 36 31 29 26 21 19 19 20 20 20 20 24 30 34 33 33 42 57 67 73 77 85 98 106 109 113 119 123 124 124 124 125 126 129 133 136 140 142 143 144 147 149 150 152 156 158 158 155 153 151 145 135 124 118 113
159 114 51 45 55 70 72 54 38 35 53 85 113 108 73 60 69 80 72 52 35 31 33 30 32 35 33 32 35 37 34 31 30 29 29 29 27 26 29 32 34 38 42 43 45 51 59 67 74 81 86 92 100 103 101 99 100 104 109 113 117 121 124 128 131 134 139 144 146 148 150 151 152 154 156 156 153 149 145 142 138 132 124 115 107
182 154 66 55 68 82 81 74 69 68 76 95 108 91 67 62 73 83 76 56 39 36 40 38 37 40 40 36 36 37 38 37 36 36 39 41 41 40 42 45 46 48 49 49 52 58 62 65 70 75 80 85 90 92 91 90 92 95 99 105 111 116 120 123 125 129 137 146 151 153 153 152 153 152 148 146 144 137 129 128 128 124 118 111 104
198 185 90 61 74 90 94 96 97 93 90 95 94 81 73 70 79 91 91 65 38 39 48 47 42 44 47 43 38 37 41 44 45 47 50 51 51 51 52 53 54 55 56 57 60 62 64 65 67 71 74 78 80 82 85 88 91 95 99 104 109 113 113 113 115 121 133 148 156 157 153 150 148 145 139 136 133 122 115 117 117 111 106 99 96
210 204 181 65 74 97 113 114 115 111 105 102 97 90 87 86 90 100 100 64 36 47 60 54 46 47 51 51 48 44 42 44 48 52 53 54 53 54 55 56 59 61 62 61 62 63 65 66 67 68 71 74 77 80 85 88 92 97 102 104 106 105 104 104 108 114 125 143 154 155 151 145 141 137 132 130 128 120 109 105 109 108 99 89 88
217 208 200 102 81 99 120 133 136 131 123 124 125 108 94 89 96 107 98 53 48 65 64 51 48 50 53 56 58 55 49 47 49 50 50 49 50 51 52 52 54 56 58 58 59 60 62 65 67 68 69 72 75 78 82 85 90 95 98 99 99 97 97 102 109 112 119 134 146 148 145 142 141 139 131 126 129 124 107 100 107 108 92 79 83
228 215 206 182 104 89 106 143 158 155 145 144 145 128 101 91 99 105 89 65 65 72 68 60 58 55 53 56 59 57 53 51 50 49 48 49 49 49 49 48 49 51 53 55 56 57 59 62 65 66 67 69 73 77 80 84 89 93 94 95 96 98 102 111 116 116 121 131 138 138 136 135 135 133 124 118 122 124 112 106 116 115 92 74 74
246 226 207 191 151 98 99 135 163 170 165 156 153 142 120 107 109 106 99 90 81 74 69 68 66 61 57 55 53 51 51 51 50 49 50 51 52 51 50 50 50 52 54 54 54 54 55 56 58 61 63 65 69 75 81 86 89 92 93 93 94 98 106 114 118 118 121 125 125 123 124 124 119 115 112 109 110 113 107 100 123 132 108 80 72